Showing default

TIANQI 40, 67479

Orbit data source: Space-Track

TIANQI 40, 67479 is a payload satellite owned by Guodian Gaokeji (CN) in LEO that was launched on Thu, 15 Jan 2026 UTC via a GUSHENXING 1 launch vehicle from the Yellow Sea Launch Area, China (YSLA). Payload-class satellites include a variety of spacecraft equipped with specific instruments for various scientific and technological missions. These include communications satellites like Starlink; space stations such as the ISS; scientific satellites like the Hubble; Earth observation satellites from companies like Planet Labs, Umbra, and HawkEye 360; GPS; miniature CubeSats for education and research; and military/defense satellites.

Loading next visibility...
Identifier
67479, 2026-010D
Orbit
LEO
Country
Flag of CNCN / PRC
Related business
Manufacturer
Shanghai ASES
Mission
Operational Commercial Communications
Bus & Motor
STARLIGHTB, Unknown motor
Mass
40 kg wet, ~40 kg dry
Launch date (UTC)
2026-01-15 (5 months ago)
Launch vehicle
GUSHENXING 1
Launch site
Yellow Sea Launch Area, China (YSLA)
Object type
Payload
Rocket body
Debris
Shape & HBR
Box, 0.7 m
Radar Cross Section
0.195 m², Medium (>0.1 m² and < 1m²)

Expand to show TLE details & history
Last TLE update: 11 hours ago

TLE from 11 hours ago
0 TIANQI 40
1 67479U 26010D   26171.40762966  .00000039  00000-0  11465-3 0  9991
2 67479  44.9836  67.6079 0011082 353.4968   6.5719 13.99148095 21846
Epoch: 2026-06-20T09:46Z
TLE epoch observation values (Epoch: 2026-06-20T09:46:59.202Z)
Latitude
-0.00005°
Longitude
12.23849°
Altitude
888.736 km
Speed
7.413 km/s
True Right ascension
04h 30m 25s
True Declination
0° 00' 00"
Sunlit
Object was in daylight at epoch
Visualization orbit readout
Latitude
Unknown
Longitude
Unknown
Altitude
Unknown
Speed
Unknown
Apparent Right ascension
Unknown
Apparent Declination
Unknown
Sunlit
N/A
Visualization observer readout
Local Sidereal Time
07:22:43
Azimuth
Unknown
Elevation
Unknown
Doppler factor
Unknown
Orbital elements
Apogee altitude
906.331 km
Perigee altitude
890.204 km
Semi-major axis
7,276.404 km
Eccentricity
0.00111
Inclination
44.9836°
RAAN
67.6079°
Arg. of periapsis
353.4968°
True anomaly
6.58645°
Mean anomaly
6.5719°
Eccentric anomaly
6.57918°
Mean motion
3.49678 °/min
Orbital period
102.95 mins
BSTAR
0.00011465
Loading maneuver chart data...
Computing Atmospheric mass density...
Loading historical data...
Loading historical data...
Loading historical data...
Loading historical data...
Loading historical data...
Loading historical data...
Loading historical data...
Other satellites on launch #10 in the year 2026 (2026-01-15 UTC)

Documentation

Showing up to 5 results
|